UAE122 LIMC-OBBI

Flight info

Callsign UAE122
Flight time N/A
Altitude 41000
Route SRN6LXVAKON1Q/35R VAKON DCT OTKEK DCT LABIN DCT ELTIB DCT MITNO DCT NISVA DCT ADORU UT302 TIRER UN644 BKZ UL333 ASMAP UT341 BAG UL614 GOBIT UG8 MARTI UL614 EZS UT36 RENGI UT253 OTKEP UM688 RATVO M688 SIDAD P975 LONOS L703 KOBOK
Aircraft A359/H-SDE2E3GHIJ3J4J5LM1ORWXY/LB1D1

Departure

Time 2026-05-05 21:57
Airport Milan Malpensa International Airport (LIMC)

Arrival

Time N/A
Airport Bahrain International Airport (OBBI)
Time Latitude Longitude Altitude Speed Heading
2026-05-05 21:00 45.62837 8.71443 746 ft 0 kts 169°
2026-05-05 21:29 45.62851 8.71439 743 ft 4 kts 169°
2026-05-05 21:29 45.62875 8.71433 743 ft 4 kts 169°
2026-05-05 21:29 45.62896 8.71427 743 ft 4 kts 180°
2026-05-05 21:29 45.62917 8.71436 743 ft 4 kts 229°
2026-05-05 21:30 45.62928 8.71465 743 ft 4 kts 257°
2026-05-05 21:30 45.62931 8.71499 743 ft 4 kts 265°
2026-05-05 21:30 45.62930 8.71532 743 ft 4 kts 299°
2026-05-05 21:30 45.62931 8.71547 744 ft 4 kts 32°
2026-05-05 21:31 45.62941 8.71576 743 ft 4 kts 71°
2026-05-05 21:31 45.62946 8.71601 744 ft 0 kts 78°
2026-05-05 21:31 45.62945 8.71600 744 ft 0 kts 78°
2026-05-05 21:34 45.62947 8.71609 743 ft 3 kts 78°
2026-05-05 21:34 45.62955 8.71662 745 ft 7 kts 78°
2026-05-05 21:34 45.62967 8.71745 745 ft 10 kts 79°
2026-05-05 21:34 45.62978 8.71834 746 ft 0 kts 79°
2026-05-05 21:35 45.62978 8.71835 746 ft 1 kts 79°
2026-05-05 21:35 45.62985 8.71884 744 ft 9 kts 81°
2026-05-05 21:35 45.62951 8.71943 745 ft 9 kts 158°
2026-05-05 21:36 45.62884 8.71966 744 ft 11 kts 169°
2026-05-05 21:36 45.62827 8.71983 744 ft 0 kts 168°
2026-05-05 21:36 45.62826 8.71983 744 ft 2 kts 168°
2026-05-05 21:37 45.62787 8.71995 744 ft 8 kts 168°
2026-05-05 21:37 45.62723 8.72012 746 ft 11 kts 169°
2026-05-05 21:37 45.62644 8.72035 746 ft 13 kts 168°
2026-05-05 21:37 45.62550 8.72061 743 ft 15 kts 168°
2026-05-05 21:38 45.62441 8.72089 746 ft 17 kts 171°
2026-05-05 21:38 45.62361 8.72111 746 ft 0 kts 167°
2026-05-05 21:38 45.62347 8.72115 745 ft 6 kts 168°
2026-05-05 21:38 45.62284 8.72132 747 ft 13 kts 171°
2026-05-05 21:39 45.62252 8.72141 746 ft 1 kts 168°
2026-05-05 21:39 45.62204 8.72156 745 ft 14 kts 168°
2026-05-05 21:39 45.62093 8.72187 747 ft 17 kts 169°
2026-05-05 21:39 45.61967 8.72222 744 ft 19 kts 169°
2026-05-05 21:40 45.61829 8.72261 744 ft 21 kts 169°
2026-05-05 21:40 45.61681 8.72300 746 ft 22 kts 168°
2026-05-05 21:40 45.61525 8.72344 747 ft 23 kts 170°
2026-05-05 21:40 45.61392 8.72312 745 ft 18 kts 249°
2026-05-05 21:41 45.61320 8.72199 745 ft 16 kts 174°
2026-05-05 21:41 45.61207 8.72231 747 ft 17 kts 168°
2026-05-05 21:41 45.61086 8.72264 744 ft 18 kts 168°
2026-05-05 21:41 45.60959 8.72298 747 ft 19 kts 171°
2026-05-05 21:42 45.60825 8.72335 746 ft 20 kts 169°
2026-05-05 21:42 45.60683 8.72385 744 ft 21 kts 150°
2026-05-05 21:42 45.60633 8.72567 747 ft 21 kts 95°
2026-05-05 21:42 45.60617 8.72777 748 ft 22 kts 96°
2026-05-05 21:43 45.60603 8.72998 747 ft 23 kts 95°
2026-05-05 21:43 45.60594 8.73227 745 ft 16 kts 77°
2026-05-05 21:43 45.60633 8.73273 745 ft 8 kts 23°
2026-05-05 21:43 45.60697 8.73308 745 ft 12 kts 22°
2026-05-05 21:44 45.60789 8.73360 746 ft 16 kts 21°
2026-05-05 21:44 45.60903 8.73392 746 ft 17 kts
2026-05-05 21:44 45.61029 8.73372 748 ft 20 kts 349°
2026-05-05 21:44 45.61174 8.73333 746 ft 22 kts 349°
2026-05-05 21:45 45.61337 8.73292 747 ft 25 kts 351°
2026-05-05 21:45 45.61512 8.73240 747 ft 26 kts 352°
2026-05-05 21:45 45.61631 8.73292 743 ft 12 kts 73°
2026-05-05 21:45 45.61628 8.73416 746 ft 14 kts 107°
2026-05-05 21:46 45.61613 8.73474 745 ft 0 kts 112°
2026-05-05 21:48 45.61612 8.73475 746 ft 1 kts 112°
2026-05-05 21:48 45.61601 8.73513 745 ft 0 kts 111°
2026-05-05 21:51 45.61600 8.73518 744 ft 3 kts 111°
2026-05-05 21:51 45.61590 8.73578 745 ft 5 kts 93°
2026-05-05 21:51 45.61590 8.73579 745 ft 0 kts 92°
2026-05-05 21:55 45.61590 8.73585 748 ft 5 kts 93°
2026-05-05 21:55 45.61601 8.73688 746 ft 15 kts 65°
2026-05-05 21:55 45.61673 8.73726 745 ft 4 kts 351°
2026-05-05 21:56 45.61674 8.73726 745 ft 0 kts 351°
2026-05-05 21:56 45.61737 8.73711 746 ft 36 kts 350°
2026-05-05 21:56 45.62213 8.73565 744 ft 101 kts 350°
2026-05-05 21:56 45.63104 8.73326 745 ft 157 kts 348°
2026-05-05 21:57 45.64274 8.72958 1119 ft 177 kts 346°
2026-05-05 21:57 45.65463 8.72628 1914 ft 175 kts 357°
2026-05-05 21:57 45.66763 8.72601 2190 ft 203 kts
2026-05-05 21:57 45.68277 8.72632 2536 ft 227 kts
2026-05-05 21:58 45.69882 8.72708 3258 ft 232 kts
2026-05-05 21:58 45.71351 8.73597 3996 ft 232 kts 42°
2026-05-05 21:58 45.72410 8.75304 4740 ft 234 kts 55°
2026-05-05 21:58 45.73379 8.77204 5465 ft 238 kts 56°
2026-05-05 21:59 45.74173 8.79302 6206 ft 241 kts 75°
2026-05-05 21:59 45.74259 8.81689 6874 ft 245 kts 104°
2026-05-05 21:59 45.73726 8.84029 7555 ft 251 kts 117°
2026-05-05 21:59 45.72800 8.86164 8312 ft 254 kts 128°
2026-05-05 22:00 45.71749 8.88200 8815 ft 257 kts 129°
2026-05-05 22:00 45.70674 8.90265 8983 ft 259 kts 129°
2026-05-05 22:00 45.69599 8.92341 8996 ft 260 kts 128°
2026-05-05 22:00 45.68531 8.94428 9014 ft 260 kts 128°
2026-05-05 22:01 45.67461 8.96528 9297 ft 262 kts 128°
2026-05-05 22:01 45.66380 8.98649 9992 ft 266 kts 128°
2026-05-05 22:01 45.65310 9.00767 10840 ft 267 kts 128°
2026-05-05 22:01 45.64429 9.03146 11612 ft 273 kts 115°
2026-05-05 22:02 45.63779 9.05711 12396 ft 276 kts 112°
2026-05-05 22:02 45.63245 9.08325 13393 ft 272 kts 108°